M0JUI-1 Weather Reports


time (UTC)temp
C
wind
direction
speed
KPH
gust
KPH
rain 1hr
cm
rain 24hr
cm
rain mn
cm
humidity
%
barometer
mb
20260507171127 13 289 0.0 0.0 0.00 0.00 0.00 82 1014.6
20260507170627 13 285 0.0 0.0 0.00 0.00 0.00 81 1014.7
20260507170127 13 135 0.0 0.0 0.00 0.00 0.00 80 1014.5
20260507165627 13 247 0.0 0.0 0.00 0.00 0.00 80 1014.5
20260507165115 13 270 0.0 0.0 0.00 0.00 0.00 79 1014.6
20260507164615 13 261 0.0 0.0 0.00 0.00 0.00 79 1014.6
20260507164116 13 298 0.0 0.0 0.00 0.00 0.00 79 1014.7
20260507163603 13 20 0.0 0.0 0.00 0.00 0.00 78 1014.4
20260507163103 14 324 0.0 0.0 0.00 0.00 0.00 76 1014.5
20260507162603 14 313 0.0 0.0 0.00 0.00 0.00 75 1014.5
20260507162051 15 273 0.0 0.0 0.00 0.00 0.00 75 1014.5
20260507161551 15 279 0.0 0.0 0.00 0.00 0.00 76 1014.5
20260507161051 15 268 0.0 0.0 0.00 0.00 0.00 76 1014.6
20260507160551 14 279 0.0 0.0 0.00 0.00 0.00 77 1014.6
20260507160051 14 81 0.0 0.0 0.00 0.00 0.00 75 1014.6
20260507155551 14 276 0.0 0.0 0.00 0.00 0.00 77 1014.5
20260507155051 14 252 0.0 0.0 0.00 0.00 0.00 77 1014.7
20260507154539 14 272 0.0 0.0 0.00 0.00 0.00 76 1014.7
20260507154039 15 272 0.0 0.0 0.00 0.00 0.00 76 1014.6
20260507153539 14 296 0.0 0.0 0.00 0.00 0.00 77 1014.7
20260507153044 14 247 0.0 0.0 0.00 0.00 0.00 76 1014.8
20260507152539 15 313 0.0 0.0 0.00 0.00 0.00 76 1014.9
20260507152039 15 300 0.0 0.0 0.00 0.00 0.00 77 1014.7
20260507151538 14 242 0.0 0.0 0.00 0.00 0.00 77 1014.8
20260507151039 14 235 0.0 0.0 0.00 0.00 0.00 77 1015.1
20260507150539 14 282 0.0 0.0 0.00 0.00 0.00 78 1015.0
20260507150040 14 234 0.0 0.0 0.00 0.00 0.00 78 1014.9
20260507145540 14 272 0.0 0.0 0.00 0.00 0.00 78 1014.9
20260507145039 15 207 0.0 0.0 0.00 0.00 0.00 77 1015.0
20260507144539 14 295 0.0 0.0 0.00 0.00 0.00 76 1014.8
20260507144040 15 277 0.0 0.0 0.00 0.00 0.00 76 1015.0
20260507143539 15 284 0.0 0.0 0.00 0.00 0.00 75 1015.2
20260507143027 15 204 0.0 0.0 0.00 0.00 0.00 76 1015.1
20260507142527 15 274 0.0 0.0 0.00 0.00 0.00 77 1015.1
20260507142027 15 240 0.0 0.0 0.00 0.00 0.00 76 1015.2
20260507141527 15 239 0.0 0.0 0.00 0.00 0.00 75 1015.2
20260507141027 15 283 0.0 0.0 0.00 0.00 0.00 75 1015.4
20260507140527 15 134 0.0 0.0 0.00 0.00 0.00 77 1015.3
20260507140030 15 296 0.0 0.0 0.00 0.00 0.00 75 1015.3
20260507135527 15 296 0.0 0.0 0.00 0.00 0.00 75 1015.4
20260507135029 15 269 0.0 0.0 0.00 0.00 0.00 77 1015.4
20260507134527 15 112 0.0 0.0 0.00 0.00 0.00 74 1015.6
20260507134027 15 282 0.0 0.0 0.00 0.00 0.00 75 1015.6
20260507133527 15 62 0.0 0.0 0.00 0.00 0.00 76 1015.5
20260507133027 15 293 0.0 0.0 0.00 0.00 0.00 77 1015.3
20260507132515 15 303 0.0 0.0 0.00 0.00 0.00 79 1015.7
20260507132020 15 310 0.0 0.0 0.00 0.00 0.00 80 1015.5
20260507131515 15 62 0.0 0.0 0.00 0.00 0.00 82 1015.7
20260507131016 14 209 0.0 0.0 0.00 0.00 0.00 83 1015.4
20260507130516 13 291 0.0 0.0 0.00 0.00 0.00 85 1015.7
20260507130008 14 287 0.0 0.0 0.00 0.00 0.00 85 1015.7
20260507125504 14 284 0.0 0.0 0.00 0.00 0.00 88 1015.7
20260507125011 14 267 0.0 0.0 0.00 0.00 0.00 86 1015.7
20260507124451 13 262 0.0 0.0 0.00 0.00 0.00 88 1015.7
20260507123951 14 291 0.0 0.0 0.00 0.00 0.00 86 1015.8
20260507123451 14 286 0.0 0.0 0.00 0.00 0.00 91 1015.7
20260507122939 14 261 0.0 0.0 0.00 0.00 0.00 91 1015.7
20260507122439 13 267 0.0 0.0 0.00 0.00 0.00 93 1015.7
20260507121939 13 242 0.0 0.0 0.00 0.00 0.00 98 1015.8
20260507121439 13 291 0.0 0.0 0.00 0.00 0.00 99 1015.8
20260507120939 13 172 0.0 0.0 0.00 0.00 0.00 99 1015.8
20260507120439 13 271 0.0 0.0 0.00 0.00 0.00 99 1015.9
20260507115939 13 20 0.0 0.0 0.00 0.00 0.00 99 1016.0
20260507115427 13 113 0.0 0.0 0.00 0.00 0.00 99 1015.9
20260507114927 13 283 0.0 0.0 0.00 0.00 0.00 99 1015.9
20260507114427 13 273 0.0 0.0 0.00 0.00 0.00 99 1016.1
20260507113927 12 263 0.0 0.0 0.00 0.00 0.00 99 1016.1
20260507113427 12 290 0.0 0.0 0.00 0.00 0.00 99 1016.0
20260507112927 12 290 0.0 0.0 0.00 0.00 0.00 99 1016.1
20260507112427 12 158 0.0 0.0 0.00 0.00 0.00 99 1016.2
20260507111928 12 306 0.0 0.0 0.00 0.00 0.00 1 1016.1
20260507111427 12 270 0.0 0.0 0.00 0.00 0.00 1 1016.3
20260507110928 12 341 0.0 0.0 0.00 0.00 0.00 1 1016.3
20260507110427 12 353 0.0 0.0 0.00 0.00 0.00 4 1016.1
20260507105927 11 43 0.0 0.0 0.00 0.00 0.00 7 1016.3
20260507105428 11 281 0.0 0.0 0.00 0.00 0.00 7 1016.1
20260507104927 11 316 0.0 0.0 0.00 0.00 0.00 11 1016.2
20260507104427 11 176 0.0 0.0 0.00 0.00 0.00 12 1016.5
20260507103927 11 103 0.0 0.0 0.00 0.00 0.00 12 1016.2
20260507103427 11 252 0.0 0.0 0.00 0.00 0.00 14 1016.3
20260507102930 11 198 0.0 0.0 0.00 0.00 0.00 13 1016.3
20260507102428 10 103 0.0 0.0 0.00 0.00 0.00 14 1016.2
20260507101927 10 294 0.0 0.0 0.00 0.00 0.00 16 1016.5
20260507101427 10 296 0.0 0.0 0.00 0.00 0.00 17 1016.5
20260507100927 10 301 0.0 0.0 0.00 0.00 0.00 18 1016.4
20260507100427 10 157 0.0 0.0 0.00 0.00 0.00 18 1016.2
20260507095927 10 89 0.0 0.0 0.00 0.00 0.00 19 1016.4
20260507095427 9 52 0.0 0.0 0.00 0.00 0.00 18 1016.3
20260507094927 9 51 0.0 0.0 0.00 0.00 0.00 19 1016.3
20260507094427 9 91 0.0 0.0 0.00 0.00 0.00 19 1016.3
20260507093915 9 285 0.0 0.0 0.00 0.00 0.00 19 1016.5
20260507093415 9 44 0.0 0.0 0.00 0.00 0.00 19 1016.4
20260507092916 9 241 0.0 0.0 0.00 0.00 0.00 20 1016.3
20260507092403 9 89 0.0 0.0 0.00 0.00 0.00 20 1016.1
20260507091904 9 263 0.0 0.0 0.00 0.00 0.00 20 1016.3
20260507091404 9 309 0.0 0.0 0.00 0.00 0.00 20 1016.3
20260507090851 8 272 0.0 0.0 0.00 0.00 0.00 20 1016.1
20260507090351 8 130 0.0 0.0 0.00 0.00 0.00 20 1016.3
20260507085851 8 286 0.0 0.0 0.00 0.00 0.00 20 1016.2
20260507085339 8 215 0.0 0.0 0.00 0.00 0.00 20 1016.5
20260507084839 8 310 0.0 0.0 0.00 0.00 0.00 19 1016.3
20260507084339 8 274 0.0 0.0 0.00 0.00 0.00 19 1016.4
20260507083839 8 144 0.0 0.0 0.00 0.00 0.00 19 1016.5
20260507083340 8 283 0.0 0.0 0.00 0.00 0.00 19 1016.3
20260507082840 8 265 0.0 0.0 0.00 0.00 0.00 18 1016.3
20260507082339 8 251 0.0 0.0 0.00 0.00 0.00 18 1016.3
20260507081827 8 310 0.0 0.0 0.00 0.00 0.00 18 1016.5
20260507081326 8 159 0.0 0.0 0.00 0.00 0.00 18 1016.2
20260507080827 8 311 0.0 0.0 0.00 0.00 0.00 18 1016.5
20260507080326 7 103 0.0 0.0 0.00 0.00 0.00 17 1016.3
20260507075828 7 358 0.0 0.0 0.00 0.00 0.00 17 1016.3
20260507075328 7 85 0.0 0.0 0.00 0.00 0.00 17 1016.2
20260507074827 7 117 0.0 0.0 0.00 0.00 0.00 16 1016.1
20260507074327 7 237 0.0 0.0 0.00 0.00 0.00 14 1016.4
20260507073827 7 54 0.0 0.0 0.00 0.00 0.00 14 1016.3
20260507073327 7 124 0.0 0.0 0.00 0.00 0.00 13 1016.3
20260507072827 7 67 0.0 0.0 0.00 0.00 0.00 11 1016.3
20260507072327 7 259 0.0 0.0 0.00 0.00 0.00 11 1016.2
20260507071827 7 110 0.0 0.0 0.00 0.00 0.00 10 1016.4
20260507071327 6 274 0.0 0.0 0.00 0.00 0.00 7 1016.2
20260507070828 6 83 0.0 0.0 0.00 0.00 0.00 8 1016.1
20260507070316 6 136 0.0 0.0 0.00 0.00 0.00 4 1016.3
20260507065815 6 119 0.0 0.0 0.00 0.00 0.00 3 1016.0
20260507065315 6 109 0.0 0.0 0.00 0.00 0.00 3 1016.1
20260507064815 6 108 0.0 0.0 0.00 0.00 0.00 1 1016.0
20260507064315 6 69 0.0 0.0 0.00 0.00 0.00 1 1016.1
20260507063815 6 168 0.0 0.0 0.00 0.00 0.00 1 1016.2
20260507063315 6 99 0.0 0.0 0.00 0.00 0.00 1 1016.2
20260507062804 6 134 0.0 0.0 0.00 0.00 0.00 1 1016.1
20260507062306 6 87 0.0 0.0 0.00 0.00 0.00 1 1016.0
20260507061804 5 79 0.0 0.0 0.00 0.00 0.00 1 1016.2
20260507061251 5 191 0.0 0.0 0.00 0.00 0.00 1 1016.0
20260507060751 5 104 0.0 0.0 0.00 0.00 0.00 1 1016.1
20260507060252 5 109 0.0 0.0 0.00 0.00 0.00 1 1016.1
20260507055739 5 101 0.0 0.0 0.00 0.00 0.00 1 1016.1
20260507055239 5 114 0.0 0.0 0.00 0.00 0.00 1 1016.1
20260507054739 5 51 0.0 0.0 0.00 0.00 0.00 1 1016.0
20260507054239 5 65 0.0 0.0 0.00 0.00 0.00 1 1016.0
20260507053739 5 101 0.0 0.0 0.00 0.00 0.00 1 1016.1
20260507053240 5 142 0.0 0.0 0.00 0.00 0.00 1 1016.1
20260507052739 5 82 0.0 0.0 0.00 0.00 0.00 1 1016.3
20260507052239 5 127 0.0 0.0 0.00 0.00 0.00 1 1015.9
20260507051740 5 165 0.0 0.0 0.00 0.00 0.00 1 1016.0
20260507051239 5 57 0.0 0.0 0.00 0.00 0.00 1 1016.1
20260507050739 5 143 0.0 0.0 0.00 0.00 0.00 1 1016.0
20260507050239 5 141 0.0 0.0 0.00 0.00 0.00 1 1016.0
20260507045739 5 109 0.0 0.0 0.00 0.00 0.00 1 1016.1
20260507045239 5 82 0.0 0.0 0.00 0.00 0.00 1 1016.0
20260507044739 4 67 0.0 0.0 0.00 0.00 0.00 1 1016.1
20260507044227 4 153 0.0 0.0 0.00 0.00 0.00 1 1016.1
20260507043727 4 119 0.0 0.0 0.00 0.00 0.00 1 1016.2
20260507043227 4 131 0.0 0.0 0.00 0.00 0.00 1 1015.9
20260507042728 4 60 0.0 0.0 0.00 0.00 0.00 1 1015.9
20260507042227 4 122 0.0 0.0 0.00 0.00 0.00 1 1015.8
20260507041727 4 36 0.0 0.0 0.00 0.00 0.00 1 1015.8
20260507041227 4 139 0.0 0.0 0.00 0.00 0.00 1 1015.8
20260507040727 4 160 0.0 0.0 0.00 0.00 0.00 1 1015.9
20260507040228 4 70 0.0 0.0 0.00 0.00 0.00 1 1015.8
20260507035727 4 159 0.0 0.0 0.00 0.00 0.00 1 1015.8
20260507035227 4 84 0.0 0.0 0.00 0.00 0.00 1 1015.9
20260507034727 4 118 0.0 0.0 0.00 0.00 0.00 1 1015.8
20260507034227 4 143 0.0 0.0 0.00 0.00 0.00 1 1015.8
20260507033728 4 76 0.0 0.0 0.00 0.00 0.00 1 1015.8
20260507033227 4 123 0.0 0.0 0.00 0.00 0.00 1 1015.9
20260507032715 4 91 0.0 0.0 0.00 0.00 0.00 1 1015.8
20260507032215 4 119 0.0 0.0 0.00 0.00 0.00 1 1016.0
20260507031715 4 98 0.0 0.0 0.00 0.00 0.00 1 1015.9
20260507031204 4 330 0.0 0.0 0.00 0.00 0.00 1 1015.9
20260507030703 5 102 0.0 0.0 0.00 0.00 0.00 1 1016.0
20260507030203 5 88 0.0 0.0 0.00 0.00 0.00 1 1016.0
20260507025651 5 205 0.0 0.0 0.00 0.00 0.00 1 1015.9
20260507025152 5 195 0.0 0.0 0.00 0.00 0.00 1 1015.8
20260507024651 5 143 0.0 0.0 0.00 0.00 0.00 1 1015.9
20260507024140 5 246 0.0 0.0 0.00 0.00 0.00 1 1015.9
20260507023639 5 113 0.0 0.0 0.00 0.00 0.00 1 1016.1
20260507023140 5 125 0.0 0.0 0.00 0.00 0.00 1 1015.9
20260507022639 5 134 0.0 0.0 0.00 0.00 0.00 1 1016.0
20260507022139 5 59 0.0 0.0 0.00 0.00 0.00 1 1015.8
20260507021639 5 136 0.0 0.0 0.00 0.00 0.00 1 1015.7
20260507021138 5 154 0.0 0.0 0.00 0.00 0.00 1 1015.9
20260507020639 5 131 0.0 0.0 0.00 0.00 0.00 1 1016.0
20260507020139 5 106 0.0 0.0 0.00 0.00 0.00 1 1015.9
20260507015639 5 89 0.0 0.0 0.00 0.00 0.00 1 1016.0
20260507015139 5 173 0.0 0.0 0.00 0.00 0.00 1 1015.9
20260507014627 5 81 0.0 0.0 0.00 0.00 0.00 1 1015.9
20260507014127 5 187 0.0 0.0 0.00 0.00 0.00 1 1016.0
20260507013627 5 112 0.0 0.0 0.00 0.00 0.00 1 1016.2
20260507013127 5 168 0.0 0.0 0.00 0.00 0.00 1 1016.1
20260507012627 5 193 0.0 0.0 0.00 0.00 0.00 1 1016.0
20260507012128 5 63 0.0 0.0 0.00 0.00 0.00 1 1016.2
20260507011627 5 188 0.0 0.0 0.00 0.00 0.00 1 1016.0
20260507011127 5 86 0.0 0.0 0.00 0.00 0.00 1 1016.1
20260507010627 5 99 0.0 0.0 0.00 0.00 0.00 1 1016.1
20260507010127 5 267 0.0 0.0 0.00 0.00 0.00 1 1016.2
20260507005627 5 80 0.0 0.0 0.00 0.00 0.00 1 1016.2
20260507005127 5 135 0.0 0.0 0.00 0.00 0.00 1 1016.2
20260507004628 5 112 0.0 0.0 0.00 0.00 0.00 1 1016.2
20260507004128 5 92 0.0 0.0 0.00 0.00 0.00 1 1016.3
20260507003628 5 127 0.0 0.0 0.00 0.00 0.00 1 1016.4
20260507003127 5 139 0.0 0.0 0.00 0.00 0.00 1 1016.2
20260507002627 5 121 0.0 0.0 0.00 0.00 0.00 1 1016.4
20260507002127 5 46 0.0 0.0 0.00 0.00 0.00 1 1016.3
20260507001627 5 145 0.0 0.0 0.00 0.00 0.00 1 1016.3
20260507001127 5 154 0.0 0.0 0.00 0.00 0.00 1 1016.2
20260507000627 5 41 0.0 0.0 0.00 0.00 0.00 99 1016.3
20260507000127 5 67 0.0 0.0 0.00 0.00 0.00 99 1016.4
20260506235627 5 108 0.0 0.0 0.00 0.00 0.00 99 1016.6
20260506235127 5 183 0.0 0.0 0.00 0.00 0.00 99 1016.4
20260506234627 5 121 0.0 0.0 0.00 0.00 0.00 99 1016.5
20260506234127 5 316 0.0 0.0 0.00 0.00 0.00 99 1016.4
20260506233627 5 83 0.0 0.0 0.00 0.00 0.00 99 1016.3
20260506233128 5 98 0.0 0.0 0.00 0.00 0.00 99 1016.4
20260506232627 5 123 0.0 0.0 0.00 0.00 0.00 99 1016.5
20260506232127 6 150 0.0 0.0 0.00 0.00 0.00 99 1016.2
20260506231627 6 50 0.0 0.0 0.00 0.00 0.00 99 1016.3
20260506231127 6 129 0.0 0.0 0.00 0.00 0.00 99 1016.2
20260506230627 6 205 0.0 0.0 0.00 0.00 0.00 99 1016.3
20260506230128 6 134 0.0 0.0 0.00 0.00 0.00 99 1016.1
20260506225627 6 160 0.0 0.0 0.00 0.00 0.00 99 1016.3
20260506225127 6 78 0.0 0.0 0.00 0.00 0.00 99 1016.1
20260506224627 6 189 0.0 0.0 0.00 0.00 0.00 99 1016.1
20260506224127 6 97 0.0 0.0 0.00 0.00 0.00 99 1016.4
20260506223627 6 120 0.0 0.0 0.00 0.00 0.00 99 1016.3
20260506223127 6 129 0.0 0.0 0.00 0.00 0.00 99 1016.2
20260506222628 6 120 0.0 0.0 0.00 0.00 0.00 99 1016.0
20260506222128 6 124 0.0 0.0 0.00 0.00 0.00 99 1016.1
20260506221627 6 76 0.0 0.0 0.00 0.00 0.00 99 1016.3
20260506221115 6 93 0.0 0.0 0.00 0.00 0.00 99 1016.2
20260506220618 6 92 0.0 0.0 0.00 0.00 0.00 99 1016.4
20260506220115 6 165 0.0 0.0 0.00 0.00 0.00 99 1016.4
20260506215603 6 121 0.0 0.0 0.00 0.00 0.00 99 1016.2
20260506215103 6 147 0.0 0.0 0.00 0.00 0.00 99 1016.2
20260506214603 6 1 0.0 0.0 0.00 0.00 0.00 99 1016.2
20260506214051 6 39 0.0 0.0 0.00 0.00 0.00 99 1016.3
20260506213551 6 111 0.0 0.0 0.00 0.00 0.00 99 1016.1
20260506213051 6 59 0.0 0.0 0.00 0.00 0.00 99 1016.0
20260506212539 6 189 0.0 0.0 0.00 0.00 0.00 99 1015.9
20260506212039 6 111 0.0 0.0 0.00 0.00 0.00 1 1016.2
20260506211539 6 153 0.0 0.0 0.00 0.00 0.00 1 1016.0
20260506211039 6 76 0.0 0.0 0.00 0.00 0.00 1 1015.9
20260506210539 6 254 0.0 0.0 0.00 0.00 0.00 1 1015.9
20260506210039 6 80 0.0 0.0 0.00 0.00 0.00 1 1015.9
20260506205544 6 260 0.0 0.0 0.00 0.00 0.00 1 1015.9
20260506205039 6 160 0.0 0.0 0.00 0.00 0.00 1 1015.8
20260506204539 7 98 0.0 0.0 0.00 0.00 0.00 1 1015.9
20260506204039 7 142 0.0 0.0 0.00 0.00 0.00 1 1015.9
20260506203539 6 23 0.0 0.0 0.00 0.00 0.00 1 1015.7
20260506203039 7 127 0.0 0.0 0.00 0.00 0.00 1 1015.8
20260506202539 7 6 0.0 0.0 0.00 0.00 0.00 1 1015.7
20260506202039 7 342 0.0 0.0 0.00 0.00 0.00 2 1015.7
20260506201539 7 267 0.0 0.0 0.00 0.00 0.00 3 1015.4
20260506201039 7 268 0.0 0.0 0.00 0.00 0.00 4 1015.5
20260506200540 7 352 0.0 0.0 0.00 0.00 0.00 4 1015.4
20260506200040 7 183 0.0 0.0 0.00 0.00 0.00 5 1015.5
20260506195539 7 139 0.0 0.0 0.00 0.00 0.00 5 1015.4
20260506195028 8 97 0.0 0.0 0.00 0.00 0.00 5 1015.2
20260506194527 8 123 0.0 0.0 0.00 0.00 0.00 5 1015.1
20260506194028 8 129 0.0 0.0 0.00 0.00 0.00 4 1015.1
20260506193527 8 53 0.0 0.0 0.00 0.00 0.00 4 1015.0
20260506193026 8 163 0.0 0.0 0.00 0.00 0.00 4 1015.1
20260506192527 8 157 0.0 0.0 0.00 0.00 0.00 3 1015.0
20260506192027 8 125 0.0 0.0 0.00 0.00 0.00 3 1014.8
20260506191515 8 164 0.0 0.0 0.00 0.00 0.00 2 1014.9
20260506191016 9 110 0.0 0.0 0.00 0.00 0.00 1 1015.1
20260506190515 9 85 0.0 0.0 0.00 0.00 0.00 1 1015.0
20260506190016 9 81 0.0 0.0 0.00 0.00 0.00 1 1014.9
20260506185515 9 75 0.0 0.0 0.00 0.00 0.00 1 1015.0
20260506185015 9 118 0.0 0.0 0.00 0.00 0.00 1 1014.8
20260506184515 9 76 0.0 0.0 0.00 0.00 0.00 1 1014.9
20260506184010 9 98 0.0 0.0 0.00 0.00 0.00 99 1014.7
20260506183503 10 75 0.0 0.0 0.00 0.00 0.00 99 1014.8
20260506183007 10 32 0.0 0.0 0.00 0.00 0.00 99 1014.9
20260506182451 10 100 0.0 0.0 0.00 0.00 0.00 99 1014.8
20260506181951 10 128 0.0 0.0 0.00 0.00 0.00 99 1015.0
20260506181451 10 91 0.0 0.0 0.00 0.00 0.00 99 1014.8
20260506180939 10 109 0.0 0.0 0.00 0.00 0.00 99 1014.7
20260506180439 10 117 0.0 0.0 0.00 0.00 0.00 99 1014.9
20260506175939 10 112 0.0 0.0 0.00 0.00 0.00 99 1014.8
20260506175427 10 160 0.0 0.0 0.00 0.00 0.00 99 1014.6
20260506174928 10 87 0.0 0.0 0.00 0.00 0.00 99 1014.8
20260506174427 10 52 0.0 0.0 0.00 0.00 0.00 99 1014.8
20260506173927 10 102 0.0 0.0 0.00 0.00 0.00 99 1014.6
20260506173427 10 145 0.0 0.0 0.00 0.00 0.00 97 1014.8
20260506172927 11 155 0.0 0.0 0.00 0.00 0.00 97 1014.7
20260506172427 11 109 0.0 0.0 0.00 0.00 0.00 97 1014.8
20260506171927 11 84 0.0 0.0 0.00 0.00 0.00 96 1014.5